TRA38C LEMG-LFMN

Flight info

Callsign TRA38C
Flight time 1h 37m
Altitude 34000
Route RIXUR M445 SOPET/N0434F380 DCT DIKUT DCT TORDU DCT LOTOS DCT EBROX DCT PEXOT DCT RODRA DCT BCN DCT FEVIK N870 DALIN DCT PIVUS DCT DIBER DCT SOSUR DCT SOFFY DCT MRM DCT ABLAK
Aircraft B738/M-SDE2E3FGHIRWXY/LB1

Departure

Time 2026-05-04 10:25
Airport Málaga-Costa del Sol Airport (LEMG)

Arrival

Time 2026-05-04 12:02
Airport Nice-Côte d'Azur Airport (LFMN)
Time Latitude Longitude Altitude Speed Heading
2026-05-04 10:00 36.67544 -4.49318 44 ft 0 kts 116°
2026-05-04 10:12 36.67546 -4.49323 44 ft 2 kts 116°
2026-05-04 10:12 36.67554 -4.49344 44 ft 3 kts 116°
2026-05-04 10:12 36.67561 -4.49359 44 ft 3 kts 122°
2026-05-04 10:12 36.67572 -4.49375 44 ft 3 kts 164°
2026-05-04 10:13 36.67588 -4.49374 44 ft 3 kts 212°
2026-05-04 10:13 36.67602 -4.49361 44 ft 2 kts 221°
2026-05-04 10:13 36.67607 -4.49355 44 ft 0 kts 221°
2026-05-04 10:16 36.67549 -4.49427 44 ft 13 kts 223°
2026-05-04 10:16 36.67529 -4.49528 44 ft 15 kts 303°
2026-05-04 10:16 36.67604 -4.49646 44 ft 20 kts 312°
2026-05-04 10:16 36.67703 -4.49783 44 ft 22 kts 311°
2026-05-04 10:17 36.67836 -4.49818 44 ft 23 kts 46°
2026-05-04 10:17 36.67962 -4.49667 44 ft 24 kts 42°
2026-05-04 10:19 36.68027 -4.48666 44 ft 0 kts 118°
2026-05-04 10:19 36.68013 -4.48631 44 ft 9 kts 117°
2026-05-04 10:19 36.67973 -4.48536 44 ft 16 kts 117°
2026-05-04 10:19 36.67954 -4.48489 44 ft 8 kts 115°
2026-05-04 10:20 36.67917 -4.48398 44 ft 15 kts 117°
2026-05-04 10:20 36.67866 -4.48273 44 ft 0 kts 116°
2026-05-04 10:20 36.67853 -4.48242 44 ft 8 kts 116°
2026-05-04 10:20 36.67823 -4.48165 44 ft 5 kts 116°
2026-05-04 10:21 36.67833 -4.48091 44 ft 13 kts 45°
2026-05-04 10:21 36.67916 -4.48030 44 ft 14 kts
2026-05-04 10:21 36.67986 -4.48126 44 ft 17 kts 297°
2026-05-04 10:21 36.67993 -4.48142 44 ft 0 kts 298°
2026-05-04 10:22 36.67993 -4.48143 44 ft 0 kts 298°
2026-05-04 10:23 36.67995 -4.48147 44 ft 9 kts 298°
2026-05-04 10:23 36.68157 -4.48539 45 ft 92 kts 298°
2026-05-04 10:25 36.72845 -4.55929 4948 ft 168 kts 309°
2026-05-04 10:25 36.73649 -4.56998 5607 ft 175 kts 309°
2026-05-04 10:25 36.74500 -4.58130 5981 ft 179 kts 309°
2026-05-04 10:25 36.75459 -4.59127 6062 ft 188 kts 326°
2026-05-04 10:26 36.76652 -4.59793 6052 ft 188 kts 335°
2026-05-04 10:26 36.77911 -4.60291 6126 ft 195 kts 339°
2026-05-04 10:26 36.79305 -4.60776 6420 ft 220 kts 341°
2026-05-04 10:26 36.80913 -4.60996 6796 ft 245 kts
2026-05-04 10:27 36.82512 -4.60238 7624 ft 252 kts 29°
2026-05-04 10:27 36.83965 -4.58901 8213 ft 267 kts 37°
2026-05-04 10:27 36.85389 -4.57394 8884 ft 277 kts 40°
2026-05-04 10:27 36.86829 -4.55764 9644 ft 282 kts 40°
2026-05-04 10:28 36.88305 -4.54105 10371 ft 289 kts 40°
2026-05-04 10:28 36.89823 -4.52412 11092 ft 296 kts 39°
2026-05-04 10:28 36.91381 -4.50687 11814 ft 302 kts 39°
2026-05-04 10:28 36.92965 -4.48934 12538 ft 307 kts 39°
2026-05-04 10:29 36.94573 -4.47157 13264 ft 312 kts 38°
2026-05-04 10:29 36.96207 -4.45331 13956 ft 318 kts 42°
2026-05-04 10:29 36.97552 -4.43117 14653 ft 324 kts 60°
2026-05-04 10:29 36.98407 -4.40567 15291 ft 329 kts 72°
2026-05-04 10:30 36.99031 -4.37777 15757 ft 341 kts 77°
2026-05-04 10:30 36.99551 -4.34796 16023 ft 360 kts 80°
2026-05-04 10:30 37.00040 -4.31629 16273 ft 380 kts 81°
2026-05-04 10:30 37.00554 -4.28315 16505 ft 398 kts 81°
2026-05-04 10:31 37.01099 -4.24842 16826 ft 413 kts 81°
2026-05-04 10:31 37.01664 -4.21285 17348 ft 420 kts 81°
2026-05-04 10:32 37.05258 -3.99162 20814 ft 447 kts 80°
2026-05-04 10:33 37.05897 -3.95327 21337 ft 451 kts 81°
2026-05-04 10:33 37.06522 -3.91471 21858 ft 454 kts 81°
2026-05-04 10:33 37.07140 -3.87584 22363 ft 458 kts 81°
2026-05-04 10:33 37.07754 -3.83698 22843 ft 462 kts 81°
2026-05-04 10:34 37.08379 -3.79736 23307 ft 466 kts 81°
2026-05-04 10:34 37.09007 -3.75740 23789 ft 469 kts 81°
2026-05-04 10:34 37.09640 -3.71713 24238 ft 473 kts 81°
2026-05-04 10:34 37.10418 -3.67701 24666 ft 478 kts 73°
2026-05-04 10:35 37.11723 -3.63852 25084 ft 483 kts 62°
2026-05-04 10:35 37.13528 -3.60290 25498 ft 485 kts 53°
2026-05-04 10:35 37.15657 -3.57008 25895 ft 487 kts 45°
2026-05-04 10:35 37.18104 -3.54073 26289 ft 488 kts 41°
2026-05-04 10:36 37.20536 -3.51083 26664 ft 492 kts 42°
2026-05-04 10:36 37.22925 -3.48065 27048 ft 495 kts 43°
2026-05-04 10:36 37.25342 -3.44962 27407 ft 499 kts 43°
2026-05-04 10:36 37.27769 -3.41825 27750 ft 502 kts 43°
2026-05-04 10:37 37.30202 -3.38667 28088 ft 505 kts 43°
2026-05-04 10:37 37.32648 -3.35485 28420 ft 508 kts 43°
2026-05-04 10:37 37.35106 -3.32283 28745 ft 511 kts 43°
2026-05-04 10:37 37.37601 -3.29082 29063 ft 513 kts 43°
2026-05-04 10:39 37.52479 -3.09657 31394 ft 514 kts 44°
2026-05-04 10:39 37.54950 -3.06411 31830 ft 513 kts 44°
2026-05-04 10:39 37.57419 -3.03168 32243 ft 512 kts 43°
2026-05-04 10:40 37.59885 -2.99939 32648 ft 510 kts 43°
2026-05-04 10:40 37.62354 -2.96721 33033 ft 510 kts 43°
2026-05-04 10:40 37.64811 -2.93495 33341 ft 511 kts 43°
2026-05-04 10:40 37.67240 -2.90299 33706 ft 510 kts 44°
2026-05-04 10:41 37.69694 -2.87062 33977 ft 512 kts 44°
2026-05-04 10:41 37.74614 -2.80575 34037 ft 509 kts 44°
2026-05-04 10:42 37.79485 -2.74162 34038 ft 503 kts 44°
2026-05-04 10:42 37.84307 -2.67758 34036 ft 503 kts 44°
2026-05-04 10:43 37.89095 -2.61369 34033 ft 503 kts 44°
2026-05-04 10:45 38.08389 -2.35617 34023 ft 503 kts 45°
2026-05-04 10:45 38.13159 -2.29197 34010 ft 503 kts 45°
2026-05-04 10:46 38.17961 -2.22729 34007 ft 503 kts 45°
2026-05-04 10:46 38.22660 -2.16137 34008 ft 504 kts 50°
2026-05-04 10:47 38.26941 -2.09065 34008 ft 504 kts 52°
2026-05-04 10:47 38.31211 -2.02058 34008 ft 504 kts 51°
2026-05-04 10:49 38.48451 -1.73958 34011 ft 504 kts 51°
2026-05-04 10:50 38.52760 -1.66904 34012 ft 504 kts 51°
2026-05-04 10:52 38.70001 -1.38663 34013 ft 503 kts 51°
2026-05-04 10:52 38.74259 -1.31623 34012 ft 503 kts 51°
2026-05-04 10:54 38.91363 -1.03272 34005 ft 503 kts 51°
2026-05-04 10:56 39.08799 -0.75150 33983 ft 502 kts 41°
2026-05-04 10:57 39.14143 -0.69458 33979 ft 501 kts 36°
2026-05-04 10:57 39.19532 -0.63776 33975 ft 501 kts 37°
2026-05-04 10:58 39.24733 -0.58219 33972 ft 501 kts 37°
2026-05-04 10:58 39.30105 -0.52501 33968 ft 501 kts 35°
2026-05-04 10:59 39.35687 -0.47132 33966 ft 500 kts 33°
2026-05-04 10:59 39.41264 -0.41771 33964 ft 500 kts 33°
2026-05-04 11:00 39.46787 -0.36397 33965 ft 500 kts 34°
2026-05-04 11:02 39.68965 -0.14758 33967 ft 500 kts 34°
2026-05-04 11:05 40.06972 0.32308 33975 ft 508 kts 46°
2026-05-04 11:06 40.11789 0.39049 33975 ft 507 kts 46°
2026-05-04 11:06 40.16586 0.45800 33973 ft 507 kts 46°
2026-05-04 11:10 40.49966 0.93091 33967 ft 504 kts 46°
2026-05-04 11:12 40.68889 1.20287 33964 ft 503 kts 46°
2026-05-04 11:12 40.73609 1.27088 33966 ft 503 kts 46°
2026-05-04 11:13 40.78333 1.33915 33966 ft 503 kts 47°
2026-05-04 11:13 40.83012 1.40710 33966 ft 503 kts 47°
2026-05-04 11:14 40.87724 1.47551 33966 ft 503 kts 46°
2026-05-04 11:16 41.06425 1.74949 33965 ft 502 kts 47°
2026-05-04 11:16 41.11115 1.81799 33965 ft 501 kts 47°
2026-05-04 11:17 41.15709 1.88547 33965 ft 501 kts 47°
2026-05-04 11:19 41.31383 2.13039 33967 ft 500 kts 59°
2026-05-04 11:19 41.33065 2.17073 33965 ft 499 kts 65°
2026-05-04 11:19 41.35908 2.25463 33964 ft 498 kts 68°
2026-05-04 11:20 41.38731 2.33875 33959 ft 498 kts 68°
2026-05-04 11:20 41.41599 2.42282 33961 ft 498 kts 68°
2026-05-04 11:22 41.53149 2.75774 33949 ft 497 kts 67°
2026-05-04 11:23 41.56039 2.84159 33945 ft 497 kts 67°
2026-05-04 11:25 41.65973 3.13562 33944 ft 497 kts 68°
2026-05-04 11:25 41.68805 3.21992 33944 ft 497 kts 67°
2026-05-04 11:27 41.81428 3.59901 33951 ft 497 kts 67°
2026-05-04 11:28 41.84230 3.68374 33953 ft 497 kts 68°
2026-05-04 11:28 41.87001 3.76844 33955 ft 496 kts 68°
2026-05-04 11:29 41.89773 3.85339 33958 ft 496 kts 68°
2026-05-04 11:29 41.92524 3.93778 33960 ft 496 kts 68°
2026-05-04 11:33 42.15042 4.50354 33994 ft 492 kts 38°
2026-05-04 11:33 42.20231 4.56343 33996 ft 491 kts 38°
2026-05-04 11:34 42.25351 4.62463 33999 ft 491 kts 39°
2026-05-04 11:34 42.32721 4.71379 34002 ft 489 kts 39°
2026-05-04 11:35 42.42805 4.83517 34006 ft 488 kts 39°
2026-05-04 11:35 42.52884 4.95824 34008 ft 485 kts 36°
2026-05-04 11:36 42.58515 5.00656 34016 ft 477 kts 21°
2026-05-04 11:36 42.62367 5.02812 34014 ft 471 kts 11°
2026-05-04 11:36 42.68702 5.04951 34018 ft 469 kts
2026-05-04 11:37 42.71823 5.06060 33833 ft 470 kts
2026-05-04 11:37 42.74981 5.07261 33523 ft 464 kts 10°
2026-05-04 11:37 42.78038 5.08467 33070 ft 460 kts 11°
2026-05-04 11:37 42.81100 5.09689 32618 ft 457 kts 11°
2026-05-04 11:38 42.84132 5.10902 32172 ft 454 kts 11°
2026-05-04 11:38 42.87146 5.12114 31733 ft 450 kts 11°
2026-05-04 11:38 42.90139 5.13318 31299 ft 447 kts 11°
2026-05-04 11:38 42.93118 5.14518 30868 ft 444 kts 11°
2026-05-04 11:39 42.95077 5.15307 30585 ft 442 kts 11°
2026-05-04 11:39 42.98028 5.16496 30161 ft 440 kts 12°
2026-05-04 11:40 43.15286 5.23454 27652 ft 427 kts 13°
2026-05-04 11:41 43.18121 5.24606 27230 ft 425 kts 13°
2026-05-04 11:41 43.20955 5.25760 26803 ft 423 kts 13°
2026-05-04 11:41 43.23766 5.26906 26376 ft 421 kts 13°
2026-05-04 11:41 43.27477 5.28421 25808 ft 418 kts 14°
2026-05-04 11:42 43.29359 5.29190 25518 ft 417 kts 14°
2026-05-04 11:42 43.32138 5.30325 25089 ft 415 kts 14°
2026-05-04 11:42 43.34893 5.31474 24661 ft 414 kts 16°
2026-05-04 11:42 43.37564 5.32903 24235 ft 413 kts 22°
2026-05-04 11:43 43.40121 5.34693 23807 ft 411 kts 29°
2026-05-04 11:43 43.42495 5.36774 23386 ft 410 kts 34°
2026-05-04 11:43 43.44836 5.39002 22963 ft 408 kts 33°
2026-05-04 11:43 43.47178 5.41185 22537 ft 405 kts 36°
2026-05-04 11:44 43.49200 5.43781 22116 ft 390 kts 50°
2026-05-04 11:44 43.50699 5.46798 21755 ft 377 kts 62°
2026-05-04 11:44 43.51873 5.50001 21396 ft 372 kts 67°
2026-05-04 11:44 43.52859 5.53284 21048 ft 371 kts 71°
2026-05-04 11:45 43.53754 5.56605 20703 ft 371 kts 71°
2026-05-04 11:45 43.54659 5.59887 20364 ft 370 kts 71°
2026-05-04 11:45 43.55582 5.63189 20025 ft 368 kts 71°
2026-05-04 11:45 43.56413 5.66494 19689 ft 364 kts 76°
2026-05-04 11:46 43.56983 5.69881 19355 ft 360 kts 82°
2026-05-04 11:46 43.57308 5.73281 19023 ft 357 kts 87°
2026-05-04 11:46 43.57513 5.76677 18694 ft 355 kts 88°
2026-05-04 11:46 43.57701 5.80057 18368 ft 352 kts 88°
2026-05-04 11:47 43.57901 5.83413 18045 ft 350 kts 88°
2026-05-04 11:47 43.58106 5.86753 17726 ft 349 kts 88°
2026-05-04 11:47 43.58311 5.90028 17410 ft 347 kts 88°
2026-05-04 11:47 43.58521 5.93337 17093 ft 345 kts 88°
2026-05-04 11:48 43.58730 5.96639 16776 ft 346 kts 88°
2026-05-04 11:48 43.58936 5.99912 16461 ft 343 kts 88°
2026-05-04 11:48 43.59144 6.03192 16145 ft 340 kts 88°
2026-05-04 11:48 43.59349 6.06430 15833 ft 338 kts 89°
2026-05-04 11:49 43.59299 6.09630 15525 ft 333 kts 100°
2026-05-04 11:49 43.58840 6.12745 15217 ft 329 kts 109°
2026-05-04 11:49 43.58152 6.15704 14914 ft 326 kts 113°
2026-05-04 11:49 43.57349 6.18621 14615 ft 325 kts 115°
2026-05-04 11:50 43.56503 6.21551 14310 ft 323 kts 115°
2026-05-04 11:50 43.55701 6.24382 14017 ft 321 kts 115°
2026-05-04 11:50 43.54896 6.27253 13725 ft 320 kts 115°
2026-05-04 11:50 43.54101 6.30100 13429 ft 318 kts 115°
2026-05-04 11:51 43.53310 6.32941 13136 ft 318 kts 115°
2026-05-04 11:51 43.52518 6.35788 12844 ft 316 kts 115°
2026-05-04 11:51 43.51734 6.38609 12551 ft 315 kts 114°
2026-05-04 11:51 43.50929 6.41396 12259 ft 309 kts 118°
2026-05-04 11:52 43.49888 6.43884 12036 ft 299 kts 128°
2026-05-04 11:52 43.48628 6.46085 11937 ft 290 kts 135°
2026-05-04 11:52 43.47252 6.48122 11844 ft 290 kts 138°
2026-05-04 11:52 43.45834 6.50101 11752 ft 293 kts 138°
2026-05-04 11:53 43.44408 6.52114 11659 ft 294 kts 137°
2026-05-04 11:53 43.42990 6.54134 11566 ft 292 kts 137°
2026-05-04 11:53 43.41587 6.56146 11472 ft 291 kts 137°
2026-05-04 11:53 43.40203 6.58136 11381 ft 292 kts 136°
2026-05-04 11:55 43.38921 6.77646 10708 ft 301 kts 83°
2026-05-04 11:55 43.39562 6.80360 10618 ft 297 kts 68°
2026-05-04 11:56 43.40624 6.82802 10230 ft 303 kts 57°
2026-05-04 11:56 43.41858 6.85246 9307 ft 317 kts 58°
2026-05-04 11:56 43.43097 6.87703 8442 ft 315 kts 58°
2026-05-04 11:56 43.44325 6.90164 7775 ft 301 kts 58°
2026-05-04 11:57 43.45456 6.92416 7156 ft 288 kts 58°
2026-05-04 11:57 43.46585 6.94665 6446 ft 281 kts 57°
2026-05-04 11:57 43.47822 6.96720 5745 ft 276 kts 49°
2026-05-04 11:57 43.49171 6.98537 5112 ft 267 kts 46°
2026-05-04 11:58 43.50480 7.00286 4523 ft 258 kts 46°
2026-05-04 11:58 43.51711 7.01953 4275 ft 238 kts 46°
2026-05-04 11:58 43.52837 7.03486 4143 ft 219 kts 46°
2026-05-04 11:58 43.53882 7.04914 4015 ft 207 kts 46°
2026-05-04 11:59 43.54857 7.06247 3883 ft 191 kts 46°
2026-05-04 11:59 43.55772 7.07499 3758 ft 180 kts 46°
2026-05-04 11:59 43.56630 7.08674 3646 ft 170 kts 46°
2026-05-04 11:59 43.57475 7.09834 3339 ft 174 kts 46°
2026-05-04 12:00 43.58357 7.10975 2852 ft 173 kts 43°
2026-05-04 12:00 43.59284 7.12038 2323 ft 175 kts 39°
2026-05-04 12:00 43.60279 7.13094 1613 ft 188 kts 40°
2026-05-04 12:00 43.61253 7.14291 1004 ft 184 kts 48°
2026-05-04 12:01 43.62048 7.15576 732 ft 165 kts 54°
2026-05-04 12:01 43.62698 7.16765 585 ft 147 kts 54°
2026-05-04 12:02 43.66130 7.21702 20 ft 43 kts 40°
2026-05-04 12:03 43.66214 7.21751 20 ft 11 kts 343°
2026-05-04 12:03 43.66268 7.21678 20 ft 11 kts 314°
2026-05-04 12:03 43.66321 7.21609 20 ft 10 kts 316°
2026-05-04 12:03 43.66364 7.21534 20 ft 10 kts 285°
2026-05-04 12:04 43.66366 7.21502 20 ft 0 kts 270°
2026-05-04 12:04 43.66366 7.21482 20 ft 6 kts 269°
2026-05-04 12:04 43.66365 7.21462 20 ft 0 kts 264°
2026-05-04 12:05 43.66364 7.21451 20 ft 5 kts 264°
2026-05-04 12:05 43.66370 7.21401 20 ft 1 kts 342°
2026-05-04 12:05 43.66417 7.21394 20 ft 12 kts 357°
2026-05-04 12:05 43.66424 7.21393 20 ft 0 kts 358°
2026-05-04 12:06 43.66425 7.21393 20 ft 0 kts 358°
2026-05-04 12:08 43.66426 7.21393 20 ft 0 kts 358°